Location: Avon Lake
(41.5219°N, 93.5010°W)
Time: 15:17:21
(UTC+00:00)

ISS - Visible Passes

Search period start: 30 November 2022 00:00
Search period end: 10 December 2022 00:00
Orbit: 411 x 420 km, 51.6° (Epoch: 30 November)

Date Brightness Start Highest point End Pass type
(mag) Time Alt. Az. Time Alt. Az. Time Alt. Az.
30 Nov -1.5 00:39:00 10° NNW 00:40:13 16° NNW 00:40:13 16° NNW visible
30 Nov -1.9 23:50:22 10° NNW 23:52:38 17° NNE 23:53:32 15° NNE visible
02 Dec -2.1 00:38:02 10° NW 00:39:49 24° NNW 00:39:49 24° NNW visible
02 Dec -2.5 23:49:23 10° NW 23:52:13 25° NNE 23:53:17 21° NE visible
03 Dec -0.5 01:25:51 10° WNW 01:26:11 12° WNW 01:26:11 12° WNW visible
04 Dec -3.4 00:37:02 10° NW 00:39:47 57° NW 00:39:47 57° NW visible
04 Dec -3.5 23:48:16 10° NW 23:51:31 47° NNE 23:53:33 20° E visible
05 Dec -0.7 01:25:27 10° W 01:26:29 15° W 01:26:29 15° W visible
06 Dec -2.3 00:36:12 10° WNW 00:39:17 36° SW 00:40:33 26° S visible
06 Dec -3.4 23:47:12 10° WNW 23:50:30 66° SW 23:53:46 10° SE visible
08 Dec -0.6 00:36:13 10° W 00:37:55 13° SW 00:39:37 10° SSW visible
08 Dec -1.2 23:46:29 10° W 23:49:11 23° SW 23:51:52 10° S visible
